Wind_Speed
12 9 4 4 3 3 2 2 1 2 1 1 1 1 1 2 1 1 5 7 14 14 12 9 6 5 5 5 5 7 8 7 8 10 10 10 11 12 12 13 14 14 15 15 15 14 16 15 15
8 5 5 2 4 2 1 1 2 1 4 5 3 2 1 1 1 2 8 9 15 13 11 9 6 5 4 5 5 7 7 8 8 9 10 10 11 12 12 13 13 13 14 14 14 14 15 14 15
4 6 3 4 2 2 1 2 4 2 6 1 2 2 3 1 2 8 4 16 16 13 11 7 6 5 4 4 5 6 6 7 7 8 9 10 11 12 12 12 12 12 12 13 14 13 14 13 13
3 4 3 3 2 1 1 4 4 6 2 2 2 1 1 2 3 12 9 18 16 14 11 9 6 5 4 3 4 4 5 6 6 7 8 9 9 11 11 11 11 11 11 11 13 13 13 13 14
5 3 4 3 1 1 1 4 6 4 3 3 2 1 1 2 6 12 16 19 17 14 12 10 7 5 5 3 3 3 4 4 5 6 6 7 8 9 9 10 10 11 11 11 11 12 12 13 13
3 2 3 2 2 1 2 4 4 3 3 2 1 3 2 5 8 12 21 18 16 14 13 11 7 6 5 3 3 2 3 3 3 4 5 6 7 7 8 8 9 10 10 11 11 11 12 12 12
4 3 3 3 4 1 4 6 4 4 4 3 4 2 1 6 11 16 21 18 15 13 12 11 11 8 6 5 3 3 2 1 2 2 3 4 6 7 6 7 8 8 9 8 9 10 10 10 10
4 4 4 2 4 2 4 5 1 4 4 3 4 3 2 3 18 21 20 18 16 14 13 11 13 12 10 8 4 3 2 1 1 3 2 2 2 4 5 6 9 7 7 7 7 7 7 8 9
2 3 3 5 5 2 4 3 1 1 4 3 5 2 2 9 20 22 19 18 17 16 14 12 13 13 12 11 8 5 3 2 2 2 1 3 4 4 3 3 6 6 6 6 5 6 5 6 7
4 2 5 3 3 2 5 4 5 3 3 3 3 3 3 18 21 21 19 19 19 19 17 14 14 13 13 12 11 9 7 6 6 6 6 6 5 4 5 5 5 4 4 4 3 3 4 3 4
1 2 4 3 2 3 4 3 5 4 4 8 7 6 10 15 17 19 20 21 22 22 19 18 16 14 13 13 12 11 8 7 7 8 7 6 5 5 6 6 6 5 5 5 5 4 4 4 4
3 1 2 2 2 3 3 4 2 6 4 2 7 5 13 17 21 23 22 22 22 23 22 20 18 16 15 14 14 12 11 9 8 8 8 7 7 7 6 6 6 6 6 6 6 5 5 6 6
3 2 1 1 2 2 3 4 4 7 8 2 5 8 13 17 19 19 19 20 22 23 23 22 20 19 17 16 15 15 13 12 9 9 9 9 8 8 8 7 7 6 6 6 6 7 7 7 7
2 2 1 1 1 0 2 2 0 2 2 5 6 8 11 18 21 16 19 22 25 25 24 22 22 20 19 19 17 16 15 13 13 12 11 11 11 10 10 9 9 8 8 8 8 8 8 8 9
2 1 2 1 0 0 1 3 7 2 0 3 7 7 8 15 14 23 24 24 26 26 23 24 23 21 21 21 20 19 17 16 16 14 13 13 13 12 12 12 11 10 10 10 9 9 9 9 10
3 3 2 2 0 2 1 5 3 2 2 5 7 7 8 13 20 21 24 25 25 25 25 23 23 23 22 22 21 20 19 19 18 17 16 16 15 15 15 14 13 12 12 11 11 11 11 11 11
6 1 1 4 1 2 1 6 3 2 4 7 7 9 9 10 15 22 25 26 25 24 24 24 24 24 23 22 22 22 21 22 21 20 20 19 18 17 18 17 16 15 14 14 13 13 12 12 12
1 1 2 3 2 1 3 12 9 8 7 12 10 9 10 10 17 17 23 25 25 24 23 24 25 25 24 24 24 24 25 25 25 24 23 21 21 20 20 20 19 18 17 16 15 14 14 14 14
4 2 2 3 1 3 3 7 15 7 4 7 9 10 11 12 8 13 17 20 23 24 24 25 25 26 26 27 26 27 29 28 27 26 24 23 24 23 23 23 22 21 21 19 16 16 15 13 12
2 1 3 4 1 1 4 12 6 4 4 3 5 8 11 7 9 11 14 16 21 23 25 26 27 27 27 29 29 26 24 25 28 28 27 27 26 25 26 26 25 24 23 22 20 18 14 14 12
1 2 2 3 4 1 5 5 3 2 3 3 5 5 6 9 11 8 12 17 18 23 25 26 26 26 27 27 29 29 28 28 30 29 28 26 25 26 27 27 27 26 26 26 24 22 19 12 11
2 3 2 2 3 2 3 2 4 2 5 3 4 3 6 7 6 7 10 15 21 25 22 24 25 26 26 27 29 31 32 29 31 29 28 26 26 25 26 28 29 29 29 29 28 26 24 21 15
3 2 1 1 1 2 1 0 4 2 2 3 2 2 3 3 5 6 9 14 14 15 18 21 23 25 26 27 29 31 33 35 35 35 33 33 31 29 28 28 29 31 33 32 30 28 28 28 22
5 3 4 3 1 1 1 1 4 4 5 3 2 2 2 2 2 5 6 8 11 10 13 16 20 22 24 25 27 31 33 33 33 34 34 35 34 33 33 32 32 32 34 34 33 32 32 32 31
3 4 2 1 1 4 2 1 8 4 5 5 5 3 2 2 2 2 4 6 8 9 11 14 18 21 22 24 27 29 32 33 34 34 35 34 33 33 32 31 34 36 35 35 34 35 35 34 34
4 4 4 4 3 2 2 5 4 5 3 5 4 3 3 3 2 3 3 4 6 9 9 11 15 18 19 21 25 27 29 32 33 33 34 34 34 32 29 27 26 28 33 35 35 36 36 34 36
4 3 1 5 2 1 2 6 7 5 5 5 7 4 5 4 3 3 3 5 6 6 6 8 10 13 15 18 21 24 26 28 30 30 30 31 30 30 28 25 25 25 27 30 32 35 35 34 34
2 3 3 1 4 4 3 5 4 6 10 7 7 8 6 4 3 3 3 4 4 5 6 7 8 11 12 14 16 19 22 23 25 26 28 28 27 26 25 24 24 25 25 27 29 31 31 30 31
3 2 3 1 2 3 2 6 6 12 13 14 11 9 8 6 5 4 4 4 3 2 3 3 3 5 7 9 10 13 15 17 19 22 23 23 23 23 22 23 24 25 26 26 28 30 29 29 28
3 6 6 4 4 1 1 6 1 5 7 7 10 9 6 6 6 4 6 4 4 4 4 4 2 3 5 6 8 9 11 13 15 18 19 19 21 21 22 22 24 25 26 26 28 30 29 28 29
Wind_Direction
343 345 10 41 55 63 71 85 129 106 114 322 50 175 63 49 168 8 153 152 153 157 154 154 135 123 111 104 73 67 74 64 63 47 57 56 54 53 49 48 50 47 47 46 50 51 48 53 50
337 352 49 85 76 49 28 118 130 173 136 134 113 97 111 132 184 124 138 165 156 162 163 156 139 127 111 98 67 73 78 66 71 51 58 57 57 56 56 51 52 52 50 50 52 49 48 52 52
358 23 71 80 95 106 111 172 142 130 150 151 125 31 143 143 176 173 176 161 161 167 168 166 153 140 125 94 77 75 76 71 73 64 62 63 59 57 60 58 56 54 53 51 48 48 53 55 54
8 33 58 72 90 124 150 158 146 139 214 211 123 117 217 200 168 173 161 165 167 171 174 153 157 150 136 109 87 79 75 72 73 67 69 63 63 60 61 60 59 56 54 55 50 53 50 53 53
46 58 66 81 107 111 178 160 164 151 141 156 174 172 239 219 172 181 177 171 172 173 169 162 167 165 151 134 112 96 80 73 77 64 74 67 66 63 63 61 57 53 51 51 51 52 52 47 48
58 88 83 163 185 156 180 175 172 138 143 145 149 159 229 192 183 178 171 174 176 174 172 171 172 173 168 159 139 119 92 75 84 82 82 77 63 58 59 61 56 50 49 50 53 52 51 51 51
107 82 129 139 165 201 197 159 171 171 155 223 149 167 216 219 184 173 173 177 179 180 183 183 178 178 182 182 173 160 137 96 97 101 81 76 51 48 51 59 42 46 50 51 49 47 54 55 57
100 92 116 172 176 208 167 174 129 165 202 93 174 210 221 192 180 174 177 181 185 190 195 194 192 191 193 189 189 186 190 136 117 133 106 74 1 20 39 55 33 33 40 45 45 49 60 69 66
127 75 154 186 167 166 153 171 135 132 134 213 193 218 32 164 169 171 179 188 193 199 202 204 201 207 207 210 206 207 214 210 197 202 266 300 306 338 358 24 22 35 28 34 40 48 62 68 79
70 103 194 180 180 170 175 191 186 174 182 232 239 211 150 168 169 176 185 193 199 206 206 207 210 214 217 220 225 233 243 241 245 268 290 301 308 314 325 329 339 355 357 358 16 24 29 34 46
111 132 175 183 162 161 173 215 173 177 243 224 209 203 165 176 183 191 198 203 205 210 209 211 212 216 220 224 227 234 244 253 258 266 278 287 293 304 302 314 322 333 343 346 345 347 347 1 6
92 124 160 155 138 136 173 133 226 202 226 101 222 168 169 184 194 200 203 208 210 213 214 214 215 218 222 226 231 238 245 259 266 269 272 280 281 281 291 296 311 317 323 335 330 326 328 328 335
79 186 138 121 118 128 132 237 245 248 243 200 125 164 184 195 205 210 213 216 216 219 218 217 219 222 225 230 235 239 244 251 261 264 268 270 277 277 280 285 289 297 307 308 313 313 314 317 316
151 138 88 105 78 84 225 266 25 269 25 171 178 198 201 205 206 209 216 220 220 223 223 220 223 228 230 236 240 247 249 253 256 262 265 267 269 274 276 278 280 283 286 290 304 310 312 311 311
89 81 8 14 349 171 108 257 233 267 140 214 215 220 219 223 212 217 219 221 222 226 227 225 227 230 234 239 243 249 253 254 257 261 263 265 270 271 275 276 277 277 281 287 294 301 301 303 303
57 57 45 332 35 351 75 277 263 32 192 241 234 231 231 230 226 229 229 230 231 231 230 229 229 232 237 240 244 249 252 255 259 261 262 261 263 265 266 270 273 273 276 280 282 287 296 298 298
13 120 346 330 344 333 117 274 255 169 214 257 241 236 235 246 244 237 234 233 234 235 235 234 232 235 239 243 247 250 253 254 258 259 259 260 260 262 264 267 269 269 270 273 276 281 287 294 299
244 24 303 252 318 333 275 272 282 276 241 254 254 236 236 240 243 237 236 236 237 237 237 238 237 238 241 244 246 250 252 254 255 258 260 260 260 260 261 263 265 264 267 268 271 273 279 287 298
127 126 256 259 143 320 251 278 286 300 255 267 248 239 241 242 261 250 241 237 236 237 236 235 236 236 237 239 242 246 249 254 257 259 263 261 259 259 258 261 262 259 260 266 267 268 272 282 294
98 71 296 289 305 3 343 294 276 274 267 234 254 249 248 250 253 246 237 230 228 232 233 233 234 235 236 238 243 244 255 261 262 264 263 262 260 258 256 258 261 260 259 259 257 258 262 268 275
176 183 235 236 321 197 317 293 324 293 310 280 253 249 253 248 260 255 235 228 227 230 230 231 233 235 236 239 242 245 249 255 259 258 260 262 263 261 258 259 259 259 256 255 255 253 251 249 256
294 176 141 301 11 262 2 257 284 294 305 260 278 266 264 259 248 241 231 223 225 233 235 235 236 236 239 240 241 243 247 246 259 264 270 269 264 263 260 258 258 257 256 254 253 252 250 248 245
218 103 80 81 85 4 297 98 261 325 225 226 235 261 272 255 231 232 224 225 229 236 237 236 238 238 240 242 244 246 249 256 262 266 268 270 269 263 262 258 256 254 253 253 252 250 245 244 242
148 93 50 57 45 335 360 122 268 193 194 194 224 258 271 277 245 239 236 221 226 233 234 229 231 236 239 242 245 247 253 258 262 267 269 272 274 270 264 260 256 256 254 253 253 252 248 246 244
84 64 355 353 349 222 18 11 250 232 220 186 180 206 253 271 247 237 222 217 228 232 232 228 229 236 239 244 249 252 256 259 264 270 272 275 277 275 273 266 258 256 256 256 254 251 249 246 244
178 159 167 224 205 272 14 233 245 222 232 226 262 261 280 261 242 248 248 235 233 233 233 232 236 246 247 251 255 259 261 262 266 270 273 276 278 282 283 277 269 263 258 256 254 252 252 249 247
177 184 166 105 31 343 237 281 280 220 269 240 232 242 234 224 243 262 252 236 236 235 237 244 250 259 261 264 266 266 267 266 269 274 276 277 279 280 280 277 271 264 258 255 254 252 250 248 248
163 144 92 18 175 242 262 273 235 203 214 217 222 221 230 233 260 252 244 234 235 239 239 245 257 270 278 278 278 278 278 275 275 275 273 276 280 280 278 276 269 265 261 256 253 253 252 248 247
133 188 63 139 166 184 272 259 211 201 195 193 206 209 211 219 229 230 233 223 208 182 191 211 255 285 297 300 298 292 289 283 278 274 277 279 282 282 279 274 269 263 259 255 253 253 252 250 249
178 188 163 138 198 101 146 275 224 229 208 189 201 206 209 224 228 232 236 229 208 191 191 203 235 313 328 331 324 315 306 295 286 283 284 285 283 281 276 272 267 264 260 257 252 252 251 248 247
Height
829 828 826 827 849 857 874 876 872 872 873 876 877 874 874 879 875 882 882 883 885 888 891 893 895 895 897 897 898 898 897 897 897 896 895 895 894 893 892 891 889 888 887 886 884 883 881 880 879
830 828 827 838 861 870 873 872 873 872 873 877 877 877 877 877 882 883 884 884 886 889 891 893 895 896 897 897 898 898 898 898 898 897 897 897 896 895 894 892 892 890 889 888 887 885 884 883 881
829 827 835 851 869 872 873 871 872 874 876 874 876 879 879 878 882 882 883 885 887 890 892 894 895 896 897 898 898 898 898 898 899 898 898 897 896 895 895 894 893 892 891 890 889 888 886 886 884
829 831 843 857 871 871 869 869 870 874 875 874 875 876 880 879 880 881 883 885 888 891 893 895 896 897 898 899 899 899 899 899 899 899 899 898 897 897 896 896 895 895 893 892 890 888 888 887 885
831 839 858 869 871 869 868 867 870 871 871 873 875 875 878 879 878 880 882 885 888 891 893 895 897 898 899 899 899 899 899 899 899 899 899 899 898 898 897 897 896 895 894 893 892 891 890 888 886
840 845 863 871 872 867 866 866 867 869 871 875 876 878 877 876 877 879 882 885 889 891 894 896 897 898 899 900 899 899 899 899 899 899 899 899 899 898 898 897 897 896 895 894 893 892 891 889 887
844 854 868 871 872 869 864 866 867 868 871 870 871 874 875 876 877 879 882 886 889 892 893 895 897 898 899 899 899 899 899 899 899 900 900 901 900 899 898 898 898 897 896 895 894 892 891 890 889
845 854 870 872 872 868 864 866 864 865 868 870 871 870 869 871 875 879 883 886 888 890 892 894 896 897 897 898 899 899 899 899 899 900 900 900 899 898 898 898 898 897 896 895 894 893 891 891 890
843 860 870 869 870 863 866 865 865 865 867 869 868 868 870 870 874 879 882 885 887 889 890 892 894 895 897 897 898 898 898 899 899 899 899 898 898 898 897 897 897 896 895 894 894 893 892 891 890
849 862 863 859 860 860 863 862 862 866 867 867 867 867 869 870 873 876 879 882 884 886 888 890 892 894 894 896 896 897 897 898 898 898 897 897 897 897 897 896 895 894 894 893 893 892 892 891 890
854 860 858 858 856 857 860 862 861 863 866 861 861 861 868 870 873 875 877 879 881 883 887 888 890 891 893 893 894 895 896 896 897 897 897 897 897 897 896 895 895 895 894 894 893 893 892 891 890
857 857 855 856 856 858 861 860 861 862 855 855 856 859 864 867 869 870 874 875 878 880 884 886 888 889 890 891 892 893 895 895 896 895 896 896 896 895 895 895 896 895 894 894 893 892 891 891 890
856 857 856 857 857 858 859 860 860 857 853 856 857 859 861 864 865 868 871 873 875 877 880 883 885 886 887 889 889 890 892 893 894 894 895 895 895 895 894 894 894 894 893 893 892 891 891 890 890
855 856 857 858 859 859 861 861 860 851 852 854 857 858 859 860 861 866 867 868 870 873 876 879 881 883 885 886 887 888 890 891 892 892 893 893 893 893 893 893 893 893 892 891 892 892 891 890 889
855 859 859 859 860 861 861 864 859 851 852 853 855 856 858 858 861 860 861 863 866 868 873 875 877 880 882 883 885 886 887 889 889 890 891 891 891 892 892 891 891 891 890 890 890 889 888 887 886
863 865 868 861 861 861 861 860 849 852 852 851 853 854 855 855 854 856 857 859 862 865 868 871 874 876 878 880 882 883 884 885 886 887 887 888 888 888 888 888 888 887 888 888 888 887 886 885 883
872 870 871 866 862 862 864 859 848 851 852 848 849 849 851 851 851 850 852 855 858 861 864 867 870 872 874 876 878 879 881 881 882 883 882 883 884 885 884 884 884 884 884 884 884 884 883 882 881
874 872 873 874 866 864 865 858 847 845 848 845 844 845 846 847 841 845 848 851 854 857 860 863 866 868 870 872 874 875 876 876 877 877 878 879 880 881 880 880 880 881 881 881 880 880 879 879 878
871 874 876 869 867 867 867 864 847 842 844 843 842 842 842 841 840 841 843 846 849 852 855 857 860 863 865 867 869 870 869 870 871 871 872 873 874 875 875 875 876 876 877 877 877 877 877 876 876
868 873 874 870 866 868 868 856 846 840 837 837 836 836 837 837 835 836 838 841 843 845 848 851 853 856 858 860 862 863 863 864 865 866 866 867 867 868 869 870 871 871 872 872 873 873 873 873 873
870 873 874 874 870 870 870 852 843 836 837 834 834 834 833 832 830 832 834 836 838 839 841 844 846 849 851 854 856 857 859 859 858 859 859 860 862 863 864 863 864 865 866 866 867 868 869 869 868
870 867 870 873 874 868 871 858 847 841 836 832 828 829 829 828 828 829 829 829 831 832 836 839 842 844 846 848 850 851 852 852 849 851 853 855 856 857 857 857 858 858 858 858 859 861 863 865 865
867 867 871 874 878 875 869 865 838 844 832 828 825 825 824 823 824 824 824 824 826 829 831 834 837 839 841 843 845 846 846 845 846 846 847 848 848 849 850 851 851 850 849 850 852 854 855 856 858
870 871 877 882 881 872 872 868 844 837 828 825 823 822 822 821 821 821 821 821 823 826 828 830 832 833 837 838 839 839 839 840 841 840 840 840 840 841 841 842 842 842 842 843 845 846 847 847 847
870 876 881 873 875 869 878 875 836 826 824 820 820 819 820 820 819 819 819 820 822 823 824 826 827 828 831 832 833 833 833 834 833 833 833 833 832 831 831 833 833 833 834 835 836 836 836 837 839
874 873 879 867 877 870 877 867 826 825 820 821 820 819 819 818 818 817 817 818 819 819 821 822 824 825 827 827 827 827 828 827 827 826 825 825 824 824 824 824 825 826 825 825 826 826 827 829 829
872 876 873 886 898 882 866 846 823 823 823 821 820 819 817 815 815 815 815 815 815 816 818 819 820 821 822 822 822 822 822 821 820 820 819 817 817 816 817 817 817 816 816 817 818 817 818 820 821
865 869 875 882 877 870 862 858 829 824 819 819 819 817 814 812 812 813 812 812 812 813 814 816 816 817 818 818 818 817 817 816 815 814 812 811 811 810 810 810 810 809 810 810 810 811 811 811 812
872 873 879 878 879 865 859 835 810 803 804 809 811 811 810 810 810 810 810 809 810 811 812 813 814 814 814 814 814 812 812 811 810 808 807 807 806 806 805 803 802 801 801 802 803 803 803 804 806
859 859 862 867 869 889 884 838 803 805 804 805 805 806 808 809 808 808 808 809 810 810 810 810 811 812 812 811 810 809 808 807 805 803 802 801 800 800 798 797 796 795 794 795 794 795 796 796 795